SCP
0 0 0 0 0 0 0 0 0 0 0 0 0 0 0 0 0 0 0 0 0 1 1 1 1 0 0 0 0 0 1 1 1 1 1 1 1 1 0 0 0 0 0 0 0 0 0 0 0
0 0 0 0 0 0 0 0 0 0 0 0 0 0 0 0 0 0 0 0 0 1 1 1 1 0 0 0 0 0 1 1 1 1 1 1 1 1 0 0 0 0 0 0 0 0 0 0 0
0 0 0 0 0 0 0 0 0 0 0 0 0 0 0 0 0 0 0 0 0 1 1 1 1 0 0 0 0 1 1 1 1 1 1 1 1 1 0 0 0 0 0 0 0 0 0 0 0
0 0 0 0 0 0 0 0 0 0 0 0 0 0 0 0 1 0 0 0 0 1 1 1 1 0 0 0 0 0 1 1 1 1 1 1 1 1 0 0 0 0 0 0 0 0 0 0 0
0 0 0 0 0 0 0 0 0 0 0 0 0 0 0 1 1 1 0 0 0 1 1 1 1 1 0 0 0 1 1 1 1 1 1 1 1 1 1 1 1 1 0 0 0 0 0 0 0
0 0 0 0 0 0 0 0 0 0 0 0 0 0 0 1 1 1 0 0 0 0 1 1 1 1 1 1 1 1 1 1 1 1 1 1 1 1 1 1 1 1 1 1 1 0 0 0 0
0 0 0 0 0 0 0 0 0 0 0 0 0 0 1 1 1 1 1 0 0 0 0 1 1 1 1 1 1 1 1 1 1 1 1 1 1 1 1 1 1 1 1 1 1 1 1 1 1
0 0 0 0 0 0 0 0 0 0 0 0 0 0 1 1 1 1 1 1 1 0 0 0 1 1 1 1 1 1 1 1 1 1 2 2 1 1 1 1 1 1 1 1 1 1 1 1 1
0 0 0 0 0 0 0 0 0 0 1 1 1 1 1 2 2 2 2 2 1 1 1 1 1 1 1 1 1 1 2 2 2 2 2 2 2 2 1 2 2 2 1 1 1 1 1 1 1
0 0 0 0 0 0 0 0 0 1 1 1 1 1 2 2 3 3 3 3 3 2 2 2 2 2 2 2 2 2 2 3 3 3 3 3 3 2 2 2 2 2 2 1 1 1 1 1 1
0 0 0 0 0 0 0 1 1 1 1 1 2 2 2 2 3 3 4 4 4 4 4 4 4 4 3 3 3 3 3 3 3 3 3 3 3 3 3 3 3 3 2 2 2 2 2 1 1
0 0 0 0 0 0 0 1 1 2 2 2 2 2 3 3 3 4 4 5 5 5 5 4 5 5 4 3 3 3 3 3 3 4 3 3 4 4 3 3 3 3 3 3 3 2 2 2 2
0 0 0 0 0 0 1 1 2 2 2 2 2 3 3 3 4 4 4 5 6 6 5 4 5 5 4 4 4 3 3 3 3 3 3 4 4 4 4 4 4 4 4 3 3 3 2 2 2
0 0 0 0 0 0 1 1 2 2 2 2 3 4 4 4 5 5 5 5 5 4 4 4 4 4 4 5 4 4 4 4 3 3 4 5 5 5 4 4 4 4 4 4 3 3 3 2 2
0 0 0 0 0 0 1 1 2 2 2 3 3 4 5 5 5 5 5 5 4 4 4 4 4 4 5 5 4 4 4 4 4 4 4 5 5 5 5 5 4 3 4 4 4 4 3 3 3
0 0 0 0 0 0 1 1 1 1 2 2 2 3 3 3 4 4 4 4 4 4 4 4 4 5 5 5 4 3 3 3 3 3 4 5 5 5 6 5 4 4 4 5 5 4 4 3 3
0 0 0 0 0 0 1 1 1 1 2 2 2 2 2 2 3 3 3 4 4 4 4 4 4 5 5 4 4 3 3 3 3 3 4 3 4 5 6 7 6 5 5 5 5 4 4 3 3
0 0 0 0 1 1 1 1 1 1 1 1 2 2 2 2 2 2 3 3 4 4 4 5 5 6 5 4 4 3 3 4 4 4 3 3 3 4 6 8 7 5 5 6 5 4 3 3 2
0 0 0 0 1 1 1 1 1 1 1 1 1 1 1 1 2 2 2 2 2 3 3 4 5 6 6 5 5 4 4 4 3 3 3 2 2 3 5 5 5 5 5 5 5 4 3 3 2
0 0 0 0 0 0 1 1 1 1 1 1 1 1 1 1 1 1 1 1 1 2 2 2 3 3 4 4 5 4 4 3 2 2 2 2 2 2 3 3 3 4 5 5 5 5 4 3 2
0 0 0 0 0 0 1 1 1 1 1 1 1 1 1 1 1 1 1 1 1 1 1 1 1 1 2 2 2 2 2 2 2 2 2 1 1 1 2 2 2 3 4 4 4 4 4 3 2
0 0 0 1 1 1 1 1 1 1 1 1 1 0 0 0 0 1 1 1 1 1 1 1 1 1 1 1 1 1 1 1 1 1 1 1 1 1 1 1 1 2 3 3 3 3 2 2 2
0 0 0 0 0 0 0 1 1 1 1 1 0 0 0 0 0 0 1 1 1 0 0 1 1 1 1 1 1 1 1 1 1 1 1 1 1 1 1 1 1 1 2 3 2 2 2 2 1
0 0 0 0 0 0 1 1 1 1 1 1 1 0 0 0 0 0 0 0 0 0 0 0 1 1 1 1 1 1 1 1 1 1 1 0 0 0 0 1 1 1 1 2 2 2 2 2 1
0 0 0 0 0 0 1 1 1 1 1 1 1 0 0 0 0 0 0 0 0 0 0 0 1 1 1 1 1 1 1 1 1 1 1 0 0 0 0 0 0 1 1 1 1 1 2 2 2
0 0 0 0 0 0 0 1 1 1 1 1 0 0 0 0 0 0 0 0 0 0 0 0 0 0 0 1 1 1 1 1 1 1 1 0 0 0 0 0 0 0 1 1 1 1 1 2 2
0 0 0 0 0 0 0 1 1 1 1 0 0 0 0 0 0 0 0 0 0 0 0 0 0 0 0 0 0 1 1 0 0 0 0 0 0 0 0 0 0 0 0 1 1 1 1 1 2
0 0 0 0 0 0 0 0 1 1 0 0 0 0 0 0 0 0 0 0 0 0 0 0 0 0 0 0 0 0 0 0 0 0 0 0 1 1 0 0 0 0 0 1 1 1 1 1 1
0 0 0 0 0 0 0 0 0 0 0 0 0 0 0 0 0 0 0 0 0 0 0 0 0 0 0 0 0 0 0 0 0 0 0 0 0 1 1 1 0 0 0 0 1 1 1 1 1
0 0 0 0 0 0 0 0 0 0 0 0 0 0 0 0 0 0 0 0 0 0 0 0 0 0 0 0 0 0 0 0 0 0 0 0 0 1 1 1 1 1 0 0 0 0 1 1 1
Wind_Speed
17 14 8 5 7 7 3 6 5 5 3 3 1 2 4 5 7 6 6 11 16 19 20 20 17 16 15 14 13 12 13 13 14 13 13 13 13 12 12 11 10 9 8 8 7 7 7 7 8
14 12 7 6 8 2 5 5 5 6 5 1 1 2 4 3 6 6 7 13 18 19 19 18 19 16 15 14 13 12 12 13 13 13 13 12 12 11 11 10 10 9 8 8 7 7 7 7 7
13 9 6 6 5 6 7 6 4 3 1 2 1 2 4 6 5 5 9 16 17 17 17 18 19 17 15 14 13 13 12 12 12 12 12 11 11 11 11 10 9 9 8 8 7 7 7 7 7
8 7 7 8 5 5 6 6 4 3 0 0 2 2 5 7 4 8 14 17 18 17 16 19 18 17 15 14 13 13 12 12 11 11 11 11 11 10 10 10 9 9 8 8 7 7 7 7 7
6 6 8 8 3 4 5 6 5 5 3 2 1 3 7 7 8 13 15 17 17 17 15 18 17 16 15 14 13 13 12 12 11 11 10 10 10 10 10 10 9 8 8 8 8 7 7 8 8
6 6 9 6 4 3 3 5 5 4 2 1 0 3 8 7 10 13 15 15 16 16 15 17 16 16 15 14 13 13 12 12 11 11 10 10 10 9 9 9 9 9 9 8 8 8 8 8 8
8 7 10 8 6 2 5 6 5 5 3 2 1 2 9 10 11 13 13 13 14 14 13 14 15 14 14 13 12 12 12 11 11 10 10 10 9 9 9 9 9 10 9 9 9 9 9 10 10
7 7 11 8 6 3 5 7 5 6 3 3 2 1 7 12 13 14 13 12 12 12 12 12 12 12 12 12 13 11 11 11 11 11 11 11 11 11 11 11 11 11 11 11 11 11 11 11 11
7 9 11 7 5 4 7 9 6 3 2 3 5 7 9 17 16 15 13 12 11 11 10 11 11 10 10 10 12 13 12 12 12 12 13 12 12 13 12 15 12 13 13 12 13 13 13 12 14
9 11 10 4 6 8 8 8 8 4 2 4 6 8 11 15 16 16 15 14 14 13 12 10 10 10 9 7 8 8 9 10 11 10 12 11 10 9 10 8 11 13 14 14 15 14 13 14 11
9 11 7 6 6 8 8 5 7 7 5 8 6 3 10 13 14 14 14 14 14 13 12 11 10 9 9 6 6 5 5 6 9 11 10 9 9 8 9 7 9 12 14 13 13 14 12 12 9
9 9 8 8 7 7 7 5 5 9 9 10 6 2 7 10 11 11 12 12 12 12 12 11 10 8 8 6 5 5 5 4 6 7 10 9 7 8 8 7 8 8 7 9 9 8 11 11 11
11 9 6 7 6 4 2 3 4 9 11 10 8 6 4 5 6 7 8 9 10 10 10 9 8 7 6 6 5 5 5 6 7 7 8 10 9 9 9 7 7 9 8 9 9 10 10 10 11
6 6 6 5 3 2 4 5 5 9 8 9 10 10 9 8 7 6 5 5 6 6 6 5 6 5 4 4 4 4 6 6 8 8 9 11 10 10 9 9 9 9 9 9 8 10 9 9 8
6 8 5 2 2 5 6 7 8 8 7 9 10 11 12 10 9 7 5 4 3 2 2 2 3 2 3 4 6 6 6 8 8 8 9 11 12 11 10 9 9 9 9 9 8 10 9 9 9
8 10 7 6 1 3 9 4 9 6 7 9 9 10 10 10 9 8 7 6 5 4 3 1 1 2 3 4 5 6 7 8 8 8 8 11 12 11 10 9 8 8 7 7 8 8 8 8 8
8 6 5 8 6 1 1 8 8 6 7 8 8 8 8 8 9 8 7 6 6 5 3 2 2 3 4 5 5 7 6 7 7 7 7 8 10 11 9 7 6 7 7 7 8 7 7 8 8
1 2 4 5 7 6 8 9 7 7 7 7 7 7 7 7 7 6 6 6 5 4 3 2 2 3 4 4 4 5 6 5 5 5 6 8 7 8 7 6 7 7 6 6 7 7 7 7 6
2 1 3 6 5 5 8 9 7 6 6 7 7 6 6 6 6 6 5 5 4 4 3 2 3 3 3 3 5 5 5 5 4 4 5 6 6 6 5 5 5 5 6 7 8 7 9 8 6
4 4 4 6 5 3 7 8 7 6 7 6 6 6 6 6 6 6 5 5 4 4 3 2 2 3 4 4 4 4 5 5 4 4 4 5 5 5 4 4 4 4 5 7 8 8 7 6 6
5 4 2 4 6 7 8 9 7 7 7 7 6 6 6 6 5 5 5 4 4 4 3 3 3 4 4 6 5 4 4 4 4 4 4 5 5 5 4 5 5 5 5 5 6 7 8 6 6
3 1 2 6 9 6 8 3 9 7 7 6 5 5 5 4 4 4 3 3 3 2 2 2 3 4 5 6 6 7 7 7 7 5 4 5 4 5 4 5 5 5 5 5 6 6 6 7 7
3 1 4 7 8 5 6 5 9 7 5 5 4 3 2 2 1 1 1 2 3 3 4 4 5 6 6 6 7 8 8 7 6 6 5 5 4 3 4 4 4 4 5 5 6 5 7 7 8
1 4 6 8 9 7 1 5 7 5 3 3 3 2 1 1 1 2 3 4 5 6 6 7 7 8 8 8 8 9 10 10 10 9 8 6 4 3 3 3 3 4 4 5 5 6 8 8 9
4 7 6 6 6 1 3 3 7 6 3 2 1 1 2 2 4 5 6 7 8 9 9 10 10 10 10 10 10 10 10 11 12 11 9 8 7 5 4 4 3 3 3 4 5 6 7 9 9
3 7 6 7 6 1 4 1 7 4 3 1 2 3 3 5 6 7 8 9 10 11 11 11 11 12 12 12 11 11 11 11 11 10 11 11 9 8 6 6 5 5 4 5 4 5 6 7 9
3 4 6 7 5 5 2 7 7 4 1 1 2 4 5 7 8 9 10 10 10 11 11 12 12 13 13 14 13 12 12 12 12 12 12 12 10 9 9 9 8 7 7 6 5 5 6 7 8
6 4 4 6 7 6 2 2 4 3 3 3 4 6 7 9 10 11 11 11 11 12 12 13 13 13 14 15 13 12 13 13 13 13 13 13 13 12 12 12 11 10 9 9 8 7 6 6 7
3 3 5 4 5 7 7 4 7 4 5 6 7 7 9 11 12 12 12 12 13 14 14 14 14 15 15 14 14 14 14 14 14 13 14 13 13 13 13 14 13 13 12 11 10 9 8 8 8
5 5 6 5 5 5 7 4 7 3 5 6 8 9 11 12 13 13 13 14 14 15 15 15 15 16 16 15 15 15 15 15 15 15 15 14 14 14 14 14 15 15 14 13 12 12 11 10 10
Wind_Direction
157 164 179 201 234 229 38 44 18 17 27 29 10 277 315 326 334 18 78 145 148 147 144 152 156 159 160 159 156 154 155 158 160 160 159 158 157 156 157 158 159 159 156 149 141 135 130 128 127
159 162 193 228 259 318 65 42 23 23 30 36 200 256 291 18 37 73 122 142 150 148 148 155 154 159 160 160 159 158 158 159 160 162 162 161 160 159 160 161 163 163 160 154 151 146 141 138 138
159 190 242 248 274 349 15 27 15 19 15 306 336 344 355 30 70 102 126 147 150 148 149 147 156 160 162 162 162 162 163 163 164 165 166 166 165 166 167 167 168 167 163 161 161 158 154 151 151
174 212 234 254 291 11 353 359 351 324 111 337 311 81 79 44 58 111 136 150 150 150 154 148 160 161 163 165 166 167 166 167 169 170 171 172 173 175 175 175 174 171 171 171 173 172 168 167 168
226 248 249 253 300 11 0 354 323 318 351 37 339 74 88 74 92 124 143 151 154 155 155 150 162 163 165 167 169 171 171 173 175 176 178 180 181 183 185 184 183 183 184 185 185 186 183 183 185
227 244 264 285 348 0 16 2 321 330 344 27 78 96 93 109 126 138 146 156 157 157 156 148 161 165 167 170 172 175 177 179 181 183 186 189 190 193 196 196 196 196 197 200 200 200 198 198 200
261 262 276 294 309 326 15 348 332 338 338 16 5 83 114 132 134 142 147 156 158 159 155 155 165 169 171 174 177 180 183 185 188 192 194 198 201 205 209 210 211 211 211 211 213 213 212 211 211
268 270 263 266 281 316 6 338 348 331 17 43 321 5 120 138 142 142 146 156 160 161 161 161 168 170 177 178 180 186 190 193 197 201 204 206 211 215 218 221 214 222 223 221 221 222 222 221 220
246 253 261 271 290 320 354 338 350 353 58 66 44 32 86 134 145 147 150 156 161 165 166 169 169 173 183 186 175 188 195 200 205 207 208 214 219 216 208 221 211 219 228 230 229 228 228 228 224
230 252 264 304 308 318 334 336 343 308 77 64 65 82 119 144 154 158 159 163 167 171 174 174 177 175 188 193 182 202 205 199 214 218 210 215 223 230 232 199 209 225 233 235 235 237 235 233 230
231 255 277 270 291 309 312 341 3 333 12 6 350 118 150 159 166 168 166 169 169 174 180 179 182 182 194 198 204 212 221 215 221 227 227 232 235 228 229 224 207 219 227 233 225 226 231 231 232
241 249 263 279 300 301 307 325 19 24 12 4 7 117 158 169 173 172 169 168 168 178 183 187 183 191 204 216 222 229 234 233 241 232 235 234 233 238 235 231 234 225 223 228 238 233 232 238 239
237 249 256 278 282 292 321 52 59 36 25 31 51 82 111 146 157 161 162 163 170 181 186 188 188 194 207 219 241 246 254 259 254 255 245 248 246 240 239 236 238 242 238 229 231 241 242 241 241
254 263 270 280 263 188 131 87 60 30 27 50 60 62 60 64 78 102 125 151 169 179 184 188 197 204 223 242 251 258 265 261 267 262 257 253 254 250 246 242 239 241 242 242 241 242 242 242 243
259 246 206 120 172 163 167 92 45 30 49 62 66 66 63 62 62 67 74 83 97 131 159 192 206 229 265 282 285 279 276 274 272 269 262 256 254 253 250 247 243 244 243 241 242 246 245 241 240
224 218 176 90 74 169 237 95 51 38 69 69 69 71 70 63 61 59 59 59 58 60 58 14 316 297 290 292 289 284 285 284 277 273 268 261 260 258 255 252 250 248 243 237 237 239 239 238 239
201 194 136 106 53 122 162 85 64 51 72 73 69 71 71 68 60 55 57 62 57 51 36 18 345 316 299 289 278 277 277 278 282 282 279 277 272 264 257 254 259 256 244 237 242 234 235 237 234
144 148 128 94 70 90 95 96 83 70 75 80 78 75 72 66 57 57 59 64 64 57 42 27 5 341 310 297 283 281 283 289 288 290 291 290 285 278 268 260 256 251 242 235 234 239 234 247 242
302 249 115 93 100 86 99 100 92 89 82 80 76 76 77 75 76 75 75 72 72 67 59 32 4 347 321 320 314 314 311 308 303 298 306 302 298 294 284 276 264 252 244 238 234 231 227 231 232
224 212 142 121 132 139 126 111 102 91 83 77 81 81 84 91 90 83 83 85 77 65 47 31 2 356 332 342 318 312 315 312 316 310 310 314 313 313 299 291 282 264 253 240 235 229 237 230 213
231 257 186 150 154 167 163 146 134 118 113 109 102 97 92 88 87 89 84 80 76 63 38 19 360 342 344 333 320 321 306 298 314 319 318 331 332 332 321 298 280 263 255 244 235 225 229 235 221
247 19 222 181 200 185 225 191 138 141 137 123 114 110 105 102 93 86 84 71 59 40 15 354 337 336 334 323 332 331 327 330 333 322 325 323 330 332 329 311 291 268 254 252 244 236 235 238 234
13 3 222 213 238 224 207 252 129 155 148 133 120 109 108 102 85 64 11 348 341 332 332 331 330 325 324 320 313 306 312 319 318 316 309 302 303 306 317 318 309 295 275 262 250 248 240 235 241
154 203 204 222 235 230 170 272 126 125 103 114 127 133 179 265 295 303 306 307 312 317 320 322 323 318 315 309 307 300 302 302 303 300 299 289 290 287 288 291 296 292 290 279 267 251 240 243 245
244 263 250 231 231 165 121 258 87 77 62 37 358 281 273 287 299 307 312 315 317 318 323 324 322 318 315 311 306 302 297 291 282 282 286 283 282 274 260 264 269 281 280 279 274 261 254 243 239
340 307 316 311 319 12 171 118 94 79 65 359 309 303 299 300 305 306 311 313 316 321 326 326 326 321 317 312 308 303 295 287 288 288 290 287 281 278 272 251 242 240 246 257 260 265 261 256 247
324 355 340 295 287 286 133 117 126 134 115 324 310 305 310 316 315 314 318 319 323 324 324 322 320 316 314 312 307 296 294 295 296 293 279 275 273 268 258 249 243 239 233 234 239 248 256 259 255
22 353 308 316 328 313 291 170 122 100 358 336 323 324 325 323 320 321 322 321 322 319 317 317 314 314 313 309 308 306 306 298 292 288 289 285 281 275 267 257 249 241 233 229 230 238 237 246 254
19 24 349 333 342 320 324 52 76 23 343 324 324 324 324 325 324 324 322 321 318 316 316 317 316 314 312 310 309 306 301 299 295 289 284 280 276 273 266 259 252 246 240 232 228 237 236 235 241
45 21 355 338 353 318 308 49 102 16 323 314 315 321 325 325 321 319 320 320 318 318 318 317 316 313 311 310 307 303 301 297 294 291 290 286 279 272 265 259 254 248 242 235 230 232 232 234 237